Wind_Speed
34 34 35 37 38 40 44 46 48 48 47 42 41 42 43 43 43 46 47 48 49 50 50 51 53 53 53 53 53 53 53 52 50 49 49 48 47 46 46 45 44 43 42 42
32 33 35 37 36 38 42 44 46 47 46 42 41 42 43 43 44 45 47 47 48 49 49 50 52 53 53 53 53 53 53 52 51 50 49 48 48 47 46 45 44 44 43 42
32 32 35 36 34 36 38 40 43 45 44 43 43 43 43 44 44 45 47 47 47 48 48 49 50 52 52 52 53 53 53 53 52 51 50 49 49 48 46 46 45 44 44 44
34 34 36 32 32 34 35 38 40 43 43 44 45 45 44 44 45 46 47 47 48 48 47 47 49 50 51 51 52 52 52 52 52 52 51 50 49 48 47 46 46 45 45 45
34 35 34 32 32 32 34 35 38 41 43 44 45 46 45 44 45 46 47 47 47 49 49 48 48 49 50 51 51 51 51 52 52 52 51 51 49 48 47 47 46 46 45 45
34 35 34 30 31 32 33 34 35 38 42 44 46 46 45 46 46 46 47 48 48 49 49 49 48 48 48 49 50 50 50 50 51 51 51 50 49 49 48 48 47 47 46 45
34 35 33 30 31 32 33 33 35 36 39 42 45 45 44 46 46 47 47 48 49 50 49 49 48 48 48 49 50 50 49 49 49 50 49 49 49 49 48 48 48 47 45 44
35 35 32 29 30 32 32 33 36 37 38 39 41 41 42 44 45 46 48 48 49 50 49 49 50 49 48 49 50 50 50 49 48 48 48 48 47 47 48 47 47 46 45 43
35 33 31 30 31 32 32 33 34 36 37 39 40 40 42 43 44 45 47 48 48 49 50 51 51 50 50 49 49 49 49 49 48 47 47 46 46 46 46 46 45 45 44 43
34 31 31 31 32 32 33 33 34 36 38 39 40 39 40 41 43 44 46 47 48 49 49 50 51 51 51 51 50 49 48 48 48 47 47 46 46 46 45 44 44 43 42 42
34 32 31 31 32 33 34 34 34 35 37 38 38 38 39 40 41 42 45 46 47 48 49 49 51 52 51 50 50 49 48 48 48 49 48 47 46 45 45 43 42 41 41 41
32 31 32 31 32 34 35 35 35 36 36 38 38 37 37 39 40 42 44 46 47 46 47 49 49 50 51 50 49 49 48 48 49 49 49 48 47 46 45 44 42 42 41 40
31 31 32 31 32 34 36 36 36 37 37 38 38 37 37 38 39 42 44 45 46 45 46 48 49 50 51 51 51 50 49 49 49 49 49 48 47 46 44 43 42 41 40 39
30 30 31 31 32 33 34 35 36 37 38 39 39 38 38 39 39 40 42 45 46 46 47 47 48 49 51 51 50 50 50 49 49 49 48 47 46 44 43 42 41 40 39 37
30 31 30 30 31 31 32 34 35 36 37 38 39 39 39 40 40 40 41 42 45 46 46 47 47 48 50 51 51 50 49 48 47 47 46 45 45 44 42 41 40 39 37 36
30 31 31 30 30 30 31 32 33 34 36 37 37 37 38 39 39 39 40 40 42 45 46 46 46 46 47 49 49 48 48 48 46 46 45 44 43 43 41 40 39 38 36 35
30 29 29 29 29 29 30 31 32 33 34 36 36 37 37 38 38 39 40 40 40 42 44 44 44 45 45 46 47 47 46 46 45 44 44 43 42 41 40 40 39 37 36 36
27 27 27 27 27 27 28 29 29 30 31 33 35 36 36 37 38 38 39 40 41 40 42 43 44 45 45 45 45 45 45 44 44 44 43 42 42 41 40 39 38 37 36 35
26 26 26 27 27 27 27 28 28 29 30 32 33 34 35 36 36 37 38 39 41 42 42 43 43 44 45 45 43 43 43 43 43 42 41 40 40 39 38 38 37 36 34 34
25 25 26 27 27 26 26 27 28 28 29 30 31 33 33 33 35 36 37 37 39 41 42 43 43 42 44 44 44 44 44 43 43 42 41 40 39 38 36 36 36 35 34 33
23 24 25 25 26 26 26 26 26 27 27 29 30 31 31 31 32 33 33 34 35 38 41 42 41 41 41 43 44 43 42 41 41 41 41 40 39 38 37 36 35 34 34 33
23 23 24 24 25 25 24 24 24 25 25 26 27 29 29 29 29 30 31 32 33 35 38 40 40 40 39 40 40 39 40 40 40 41 41 40 40 38 37 35 34 33 33 33
23 23 23 23 22 22 23 23 23 23 23 24 24 25 26 27 27 28 29 30 31 33 35 37 39 38 38 38 38 37 37 38 38 39 39 39 38 37 35 35 34 33 32 32
22 23 22 21 20 20 21 22 21 21 22 22 23 24 24 24 25 26 27 27 29 30 32 34 35 35 34 34 34 34 34 35 35 35 36 36 36 35 35 34 34 34 32 31
22 22 21 20 19 19 19 19 19 19 20 20 21 21 22 23 23 23 24 25 26 27 28 30 31 31 31 32 32 32 32 32 32 32 32 33 32 32 32 32 32 33 32 31
21 21 20 19 18 18 18 18 19 19 19 19 20 20 21 21 22 22 22 22 23 25 26 27 28 28 29 29 30 31 31 31 31 31 31 31 31 31 30 30 30 30 31 30
20 19 19 18 17 17 17 18 18 18 18 18 18 19 20 20 20 21 21 21 22 23 24 25 26 26 27 28 29 29 29 30 30 30 29 29 29 29 29 29 29 29 29 29
Wind_Direction
265 262 259 255 249 246 245 245 244 242 241 239 240 238 237 235 232 231 231 230 230 230 230 230 230 230 231 231 232 233 233 234 236 238 239 241 243 245 247 250 253 255 258 260
267 263 259 256 252 250 249 247 245 243 240 239 241 238 236 236 234 231 229 230 230 231 231 231 230 229 230 230 231 232 233 234 235 237 239 241 243 245 247 249 252 255 258 261
266 263 261 258 255 254 251 247 244 243 241 240 239 238 237 235 234 232 230 229 230 230 229 231 230 229 229 230 231 232 232 234 235 236 238 241 242 244 246 249 251 254 257 260
268 265 263 261 258 257 254 247 244 242 240 239 239 239 238 237 235 232 230 228 228 228 228 229 229 228 228 230 231 232 233 234 236 237 238 240 242 244 246 248 251 254 257 260
268 267 266 261 260 259 256 251 246 242 239 239 240 240 239 238 236 233 230 228 227 226 227 227 227 227 227 229 231 233 234 234 235 237 238 239 241 244 246 249 252 254 257 260
268 267 267 263 260 258 256 253 248 243 240 240 241 241 239 239 237 234 230 228 228 227 227 228 228 228 228 229 230 232 233 234 235 236 237 238 240 243 246 249 252 255 257 259
268 268 267 266 261 259 257 253 247 243 241 241 242 242 239 237 237 235 233 229 228 227 227 227 228 229 229 229 230 230 231 233 234 235 237 239 241 243 246 248 251 254 257 259
268 267 267 265 261 257 255 252 248 244 242 241 241 240 239 237 235 234 233 230 228 227 227 228 228 229 229 229 229 230 231 232 233 235 237 239 241 244 246 248 251 253 256 258
266 267 264 261 259 256 254 252 248 244 242 241 240 239 238 237 235 235 233 231 229 227 227 228 228 228 229 230 230 231 231 232 233 235 237 239 240 242 245 248 251 253 255 257
266 265 262 259 258 255 253 252 248 245 243 242 240 240 239 237 234 233 231 229 228 226 225 225 226 227 228 230 231 232 233 234 234 235 237 239 242 244 246 249 251 254 255 257
265 265 261 257 255 254 251 250 248 245 244 244 241 241 241 240 237 233 232 230 228 227 226 225 226 227 228 229 231 233 234 235 236 237 238 239 241 244 246 249 250 252 254 256
265 262 262 257 253 251 249 248 248 247 245 244 242 241 240 239 237 235 233 233 233 231 229 228 229 229 229 230 231 233 234 236 237 238 238 240 241 243 245 247 248 252 253 255
266 264 262 260 256 252 250 248 248 247 245 244 243 243 241 239 238 236 234 234 234 231 230 230 230 230 230 231 232 234 234 236 237 238 239 240 242 243 244 246 248 250 252 254
267 266 264 262 260 255 252 251 249 248 246 245 244 244 243 242 240 237 235 234 233 233 232 231 231 231 232 232 233 234 233 233 235 237 239 240 241 242 244 246 248 249 251 253
264 264 264 262 260 258 255 253 252 250 248 245 244 244 243 242 241 240 237 235 233 232 231 231 230 230 232 232 233 235 234 234 234 236 237 238 239 241 242 244 245 247 250 252
264 264 264 262 259 257 255 254 254 253 250 247 246 246 244 243 241 240 238 235 232 230 230 230 230 230 231 232 233 234 235 234 234 235 236 237 238 239 240 242 244 246 249 252
266 265 264 263 260 258 256 255 253 252 251 249 248 248 247 244 241 239 239 237 233 231 231 230 230 230 231 232 234 235 235 234 234 233 233 234 236 237 239 241 243 244 248 251
269 268 266 264 261 258 257 255 254 253 252 250 248 247 246 243 240 239 238 238 235 233 232 231 231 231 232 233 234 234 234 234 233 232 232 232 233 235 237 240 241 244 247 251
268 267 267 266 263 261 257 255 255 255 254 252 249 247 246 244 241 239 238 237 236 235 233 232 231 231 232 233 234 234 233 232 232 230 230 231 231 234 237 239 241 245 248 252
270 268 269 268 266 263 260 256 256 255 254 252 250 247 246 244 242 239 238 237 236 235 233 232 231 231 232 233 233 234 233 232 231 231 231 232 232 234 238 241 243 245 249 252
271 269 269 268 265 262 259 257 256 255 255 253 249 247 245 243 239 236 235 235 234 232 231 230 229 229 230 231 230 231 231 230 230 229 230 231 233 235 238 240 242 245 249 253
270 269 270 269 266 262 259 257 255 254 253 252 249 246 244 239 235 233 233 232 230 229 228 228 227 227 228 228 228 227 229 230 230 228 229 231 233 235 237 238 241 246 250 253
272 271 272 271 268 261 259 258 256 254 252 250 246 242 240 236 233 231 230 229 228 227 226 226 226 226 226 226 225 225 226 227 229 230 230 230 232 233 236 238 241 246 250 252
272 272 272 270 266 258 256 256 254 252 250 247 243 239 236 232 230 229 227 226 224 224 223 224 223 223 222 222 223 224 224 224 226 227 228 230 232 235 237 241 245 248 249 251
270 271 270 268 262 257 255 253 250 248 247 243 239 237 234 229 225 223 222 221 221 219 218 219 219 219 220 220 219 219 219 219 220 222 225 230 233 235 238 242 246 246 247 251
271 270 268 265 261 257 255 252 249 247 243 238 234 231 227 222 220 219 218 216 215 213 213 214 216 216 216 214 214 215 216 218 220 223 227 230 233 236 239 242 242 244 247 249
272 271 268 265 262 259 256 253 249 244 236 231 227 225 222 219 217 216 214 211 209 210 210 210 211 210 210 210 211 213 215 218 221 224 228 231 233 235 237 239 241 245 247 250
Height
5505 5506 5506 5507 5509 5512 5513 5516 5519 5526 5532 5540 5543 5546 5550 5554 5559 5565 5571 5578 5585 5591 5598 5605 5611 5618 5625 5632 5638 5645 5651 5657 5664 5669 5673 5678 5681 5685 5688 5691 5694 5696 5698 5699
5497 5497 5496 5497 5500 5502 5504 5507 5511 5515 5522 5530 5532 5535 5539 5543 5548 5554 5561 5568 5574 5581 5587 5593 5600 5607 5613 5620 5627 5633 5640 5646 5652 5657 5662 5667 5671 5674 5678 5681 5684 5686 5688 5690
5488 5489 5486 5488 5493 5494 5495 5498 5502 5505 5514 5517 5520 5524 5528 5533 5538 5544 5550 5557 5563 5570 5576 5582 5588 5595 5602 5609 5615 5622 5629 5635 5640 5646 5651 5655 5659 5663 5667 5671 5674 5676 5678 5680
5479 5480 5478 5485 5484 5484 5485 5488 5491 5495 5500 5505 5509 5513 5518 5523 5528 5533 5539 5546 5553 5559 5565 5571 5578 5584 5591 5597 5604 5611 5617 5623 5629 5634 5640 5644 5648 5653 5656 5660 5663 5666 5668 5670
5470 5469 5469 5475 5476 5475 5476 5479 5482 5484 5489 5493 5497 5502 5508 5512 5517 5523 5529 5536 5542 5548 5555 5561 5567 5573 5580 5587 5594 5600 5606 5612 5618 5623 5628 5633 5638 5642 5646 5649 5652 5655 5657 5659
5461 5460 5461 5467 5468 5466 5467 5469 5473 5474 5478 5482 5486 5491 5499 5502 5506 5512 5518 5525 5531 5538 5544 5551 5557 5563 5570 5576 5583 5590 5596 5601 5606 5612 5617 5622 5627 5631 5635 5639 5642 5644 5647 5649
5452 5451 5453 5458 5458 5458 5460 5462 5463 5465 5468 5471 5475 5481 5487 5491 5496 5501 5507 5513 5520 5527 5534 5540 5546 5553 5559 5565 5572 5578 5584 5590 5595 5601 5606 5611 5616 5620 5624 5627 5631 5634 5636 5638
5444 5443 5448 5449 5448 5449 5450 5452 5453 5455 5458 5462 5466 5470 5474 5479 5484 5490 5495 5502 5508 5516 5523 5529 5536 5542 5549 5555 5561 5567 5573 5579 5585 5590 5595 5600 5605 5609 5613 5617 5620 5623 5625 5627
5436 5438 5439 5439 5439 5440 5441 5443 5444 5446 5449 5452 5456 5460 5464 5469 5474 5480 5485 5491 5497 5504 5511 5518 5525 5531 5538 5544 5550 5556 5562 5568 5574 5579 5585 5589 5594 5598 5602 5606 5609 5612 5615 5617
5425 5428 5429 5429 5429 5430 5432 5433 5435 5437 5440 5443 5446 5450 5454 5459 5464 5469 5474 5480 5486 5493 5500 5507 5513 5520 5527 5533 5539 5545 5551 5557 5563 5569 5574 5579 5584 5588 5592 5596 5599 5602 5604 5606
5416 5418 5418 5420 5420 5421 5422 5424 5425 5428 5430 5433 5437 5441 5445 5449 5454 5459 5464 5470 5475 5482 5488 5495 5502 5509 5515 5521 5528 5534 5540 5546 5552 5558 5563 5568 5573 5578 5582 5586 5589 5591 5594 5596
5406 5408 5407 5409 5410 5411 5412 5414 5416 5419 5421 5424 5428 5432 5435 5439 5444 5449 5454 5459 5465 5471 5477 5484 5490 5497 5503 5510 5517 5523 5529 5536 5541 5547 5552 5557 5562 5567 5570 5574 5577 5581 5583 5585
5397 5397 5397 5399 5400 5401 5402 5404 5407 5409 5412 5415 5419 5422 5425 5429 5433 5438 5443 5449 5454 5460 5466 5472 5479 5486 5492 5499 5505 5512 5518 5524 5530 5536 5541 5546 5551 5556 5560 5563 5567 5570 5573 5575
5387 5387 5387 5389 5390 5391 5393 5395 5397 5399 5402 5405 5409 5412 5415 5419 5423 5427 5432 5438 5443 5449 5455 5462 5468 5475 5481 5487 5494 5500 5506 5513 5519 5525 5530 5536 5541 5545 5549 5553 5557 5560 5563 5565
5378 5378 5378 5379 5380 5381 5383 5385 5387 5390 5392 5395 5398 5401 5405 5409 5413 5417 5422 5427 5433 5439 5445 5451 5457 5463 5469 5476 5482 5489 5495 5501 5507 5513 5519 5524 5530 5534 5539 5543 5547 5550 5553 5556
5369 5369 5369 5370 5371 5372 5373 5375 5377 5379 5382 5384 5387 5391 5394 5398 5403 5407 5412 5416 5422 5428 5434 5440 5446 5452 5458 5465 5472 5478 5484 5490 5496 5502 5508 5514 5519 5524 5528 5533 5537 5540 5544 5546
5360 5361 5361 5361 5362 5363 5364 5365 5367 5369 5371 5374 5377 5380 5384 5388 5392 5397 5401 5406 5411 5417 5423 5429 5435 5441 5448 5454 5461 5467 5473 5479 5486 5492 5498 5504 5509 5514 5518 5523 5527 5531 5534 5537
5352 5352 5352 5353 5353 5354 5355 5357 5358 5360 5362 5364 5367 5370 5373 5377 5381 5386 5391 5395 5401 5407 5413 5418 5424 5431 5438 5444 5450 5456 5463 5469 5475 5481 5488 5493 5498 5503 5508 5513 5517 5521 5524 5527
5344 5344 5344 5344 5345 5345 5347 5348 5349 5351 5352 5354 5357 5360 5363 5367 5371 5375 5380 5385 5390 5396 5402 5408 5414 5421 5427 5433 5440 5446 5452 5459 5465 5471 5477 5483 5488 5494 5498 5503 5507 5511 5514 5517
5336 5336 5336 5336 5336 5337 5338 5339 5340 5342 5343 5345 5347 5350 5353 5357 5360 5365 5370 5375 5379 5385 5391 5397 5403 5410 5416 5423 5429 5436 5442 5449 5455 5461 5467 5473 5479 5484 5489 5494 5498 5502 5505 5508
5328 5328 5328 5328 5328 5328 5329 5330 5331 5333 5334 5336 5338 5341 5344 5347 5351 5355 5360 5365 5370 5374 5381 5387 5393 5399 5406 5412 5419 5425 5432 5439 5445 5451 5458 5464 5469 5475 5480 5484 5489 5492 5495 5498
5321 5320 5320 5320 5320 5320 5321 5322 5323 5324 5326 5327 5329 5332 5335 5339 5343 5347 5351 5356 5361 5365 5371 5377 5383 5390 5396 5402 5409 5415 5422 5429 5435 5441 5447 5454 5459 5465 5470 5475 5479 5483 5485 5488
5313 5313 5313 5312 5312 5313 5313 5314 5315 5317 5318 5320 5322 5324 5327 5331 5335 5339 5344 5348 5352 5357 5363 5369 5375 5381 5387 5393 5400 5406 5413 5419 5426 5432 5438 5444 5450 5455 5460 5465 5469 5473 5475 5478
5307 5306 5306 5305 5306 5306 5307 5308 5309 5310 5312 5313 5315 5318 5321 5324 5328 5332 5337 5341 5345 5350 5356 5361 5367 5373 5379 5385 5391 5398 5404 5411 5417 5423 5429 5435 5440 5445 5450 5455 5459 5462 5465 5468
5300 5300 5299 5299 5300 5300 5301 5302 5303 5304 5306 5308 5310 5312 5315 5319 5323 5327 5331 5335 5339 5344 5349 5354 5360 5366 5372 5378 5384 5390 5397 5403 5409 5415 5421 5426 5431 5436 5441 5445 5449 5452 5455 5458
5293 5293 5293 5293 5294 5294 5295 5297 5298 5299 5301 5303 5305 5308 5310 5314 5318 5322 5326 5330 5334 5339 5344 5349 5354 5360 5366 5371 5378 5384 5390 5396 5402 5408 5413 5418 5423 5428 5432 5436 5440 5443 5446 5449
5287 5287 5287 5288 5288 5289 5290 5291 5293 5295 5297 5299 5302 5305 5307 5311 5315 5319 5322 5326 5330 5335 5340 5345 5350 5355 5361 5366 5372 5378 5384 5390 5396 5401 5406 5411 5415 5420 5424 5427 5431 5434 5436 5439